Location: Newark
(48.8656°N, 2.3211°E)
Time: 04:33:14
(UTC+00:00)

Envisat - Pass Details

Date: 23 February 2019
Orbit: 764 x 766 km, 98.2° (Epoch: 18 March)

Event Time Altitude Azimuth Distance (km) Brightness Sun altitude
Rises 18:40:05 0° 175° (S) 3,221 6.2 -13.2°
Reaches altitude 10° 18:42:24 10° 179° (S) 2,299 5.5 -13.6°
Maximum altitude 18:47:25 61° 259° (W) 874 3.6 -14.4°
Drops below altitude 10° 18:52:28 10° 340° (NNW) 2,315 5.8 -15.3°
Sets 18:54:49 0° 344° (NNW) 3,246 6.5 -15.6°
